Last 30 Days

Squaw-Red Dog 6200'

Daily Data | America/Los_Angeles
as of 8/12/20 1:37 PM PDT
Date Daily Max Temp (°F) Max Temp Time Daily Min Temp (°F) Min Temp Time Daily Rain (In) New Snow (in) SnowDepth (in) Wind Spd (mph) Daily Max Wind (mph) Max Wind Time Max Wind Dir (°) Max RH (%) Min RH (%) Wet Bulb (°F) WetB Hrs <28F (hrs) Bat Volt Min Day (V)
8/11/20 78.3 1340 48.5 0549 0.00 81.8 286.8 4.1 20.2 1431 N | 5 97 20 52.9 0.0 12.5
8/10/20 88.2 1350 32.0 1700 0.00 80.8 282.0 2.2 18.2 1603 NNW | 327 93 14 - 0.0 12.5
8/9/20 89.3 1419 49.4 0611 0.00 83.4 291.9 2.1 13.6 1717 NE | 39 88 12 55.9 0.0 12.5
8/8/20 85.7 1431 47.8 0629 0.00 83.6 292.2 2.7 15.3 1751 NW | 322 93 12 55.6 0.0 12.5
8/7/20 83.0 1501 41.4 0620 0.00 85.1 297.0 2.8 16.4 1720 N | 7 79 23 51.0 0.0 12.5
8/6/20 74.8 1353 40.9 0624 0.00 82.6 292.0 3.2 18.3 1309 N | 0 78 20 48.1 0.0 12.5
8/5/20 75.5 1355 46.3 0623 0.00 82.4 292.2 3.7 18.8 1422 NNE | 26 77 21 49.3 0.0 12.5
8/4/20 79.7 1512 43.1 0612 0.00 80.3 290.2 3.4 17.0 1550 NNE | 14 73 18 49.7 0.0 12.5
8/3/20 80.1 1646 41.1 0557 0.00 83.5 293.2 2.8 19.9 1445 NNE | 25 59 13 47.0 0.0 12.5
8/2/20 79.7 1452 42.3 0632 0.00 79.5 286.7 3.8 18.4 1624 NNW | 340 57 8 46.2 0.0 12.5
8/1/20 83.5 1553 43.2 0627 0.00 81.2 288.6 3.0 14.8 1729 NNE | 31 62 10 47.5 0.0 12.5
7/31/20 82.9 1621 43.5 0629 0.00 81.5 289.0 3.4 17.8 1646 NNE | 23 68 14 48.8 0.0 12.5
7/30/20 81.2 1534 46.8 0547 0.00 82.3 287.9 3.9 18.6 1401 NNE | 24 63 21 50.4 0.0 12.5
7/29/20 81.5 1537 46.3 0612 0.00 79.0 283.0 3.4 19.1 1516 NNE | 31 77 16 50.3 0.0 12.5
7/28/20 81.9 1227 46.1 0617 0.00 81.5 288.7 3.1 18.1 1247 NNE | 16 95 19 52.8 0.0 12.1
7/27/20 83.2 1221 48.8 0606 0.00 84.7 293.8 2.6 16.8 1524 N | 1 74 21 52.6 0.0 12.5
7/26/20 87.2 1429 47.9 0553 0.00 84.6 294.2 3.0 29.4 1545 NNE | 14 84 13 52.8 0.0 12.5
7/25/20 82.2 1239 46.8 0626 0.00 83.9 291.8 3.1 18.6 1753 NE | 42 82 26 53.6 0.0 12.5
7/24/20 79.9 1221 44.7 0618 0.00 81.9 289.9 3.4 17.4 1813 N | 1 91 21 52.4 0.0 12.5
7/23/20 77.5 1153 45.5 0603 0.00 81.1 290.4 3.7 18.1 1613 N | 0 92 30 52.4 0.0 12.4
7/22/20 77.8 1413 52.2 0538 0.00 82.0 289.6 3.6 18.7 1452 NNE | 28 81 36 54.8 0.0 12.5
7/21/20 85.6 1358 49.2 0624 0.00 84.6 292.7 3.1 17.4 1323 NE | 48 76 17 54.8 0.0 12.5
7/20/20 89.7 1333 50.2 0606 0.00 87.5 297.4 2.5 18.1 1640 NNE | 30 76 14 54.5 0.0 12.5
7/19/20 86.8 1202 49.9 0533 0.00 85.3 294.3 3.0 17.8 1700 NNE | 17 69 18 54.8 0.0 12.5
7/18/20 84.4 1134 45.9 0540 0.00 84.5 294.3 2.9 15.8 1515 N | 349 70 21 53.1 0.0 12.5
7/17/20 82.9 1328 51.2 0543 0.00 81.6 288.6 3.6 18.3 1552 NNW | 337 89 16 54.7 0.0 12.5
7/16/20 89.1 1316 50.2 0553 0.00 85.5 295.2 2.6 17.6 1640 NNE | 33 86 14 56.1 0.0 12.5
7/15/20 90.3 1627 49.8 0534 0.00 83.6 292.7 2.1 12.1 1815 N | 11 91 14 55.6 0.0 12.5
7/14/20 84.7 1314 45.5 0602 0.00 83.9 292.8 2.7 14.8 1544 N | 1 82 21 53.2 0.0 12.5
7/13/20 79.3 1423 45.0 0526 0.00 77.0 284.0 4.9 24.3 1235 N | 2 67 19 50.9 0.0 12.6
Max 90.3 - 52.2 - 0.00 87.5 297.4 4.9 29.4 - - 97 36 56.1 0.0 12.6
Avg - - - - - 82.7 290.8 3.1 - - - - - 52.1 - -
Min 74.8 - 32.0 - 0.00 77.0 282.0 2.1 12.1 - - 57 8 46.2 0.0 12.1